Stations météo

réclame
Mon MeteoGroup
Glenanne, Grande-Bretagne (3923): Température de l'air & dewpoint: 20.08.2019 02:00:00 - 26.08.2019 02:00:00 (BST)Glenanne, Grande-Bretagne (3923): Température de l'air -100cm: 20.08.2019 02:00:00 - 26.08.2019 02:00:00 (BST)Glenanne, Grande-Bretagne (3923): Vitesse du vent & gusts: 20.08.2019 02:00:00 - 26.08.2019 02:00:00 (BST)Glenanne, Grande-Bretagne (3923): Direction du vent: 20.08.2019 02:00:00 - 26.08.2019 02:00:00 (BST)Glenanne, Grande-Bretagne (3923): reduced air pressure: 20.08.2019 02:00:00 - 26.08.2019 02:00:00 (BST)Glenanne, Grande-Bretagne (3923): visibility: 20.08.2019 02:00:00 - 26.08.2019 02:00:00 (BST)Glenanne, Grande-Bretagne (3923): Quantités de précipitations: 20.08.2019 02:00:00 - 26.08.2019 02:00:00 (BST)
Date & Time tt [°C] td [°C] tt -100cm [°C] ff [km/h] ff [knt] fx [km/h] fx [knt] dd ppp [hPa] vv [km] rr [mm]
26.08.2019 02:00:00 12,7 12,4 - 5 3 - - SW 1018,4 11 -
26.08.2019 01:00:00 13,2 12,8 - 5 3 - - W 1018,8 12 0,0
26.08.2019 00:00:00 12,9 12,5 - 8 4 - - NW 1018,9 17 0,0
25.08.2019 23:00:00 13,1 11,8 - 4 2 - - WNW 1018,7 25 0,0
25.08.2019 22:00:00 14,2 12,8 - 4 2 - - NW 1018,6 20 0,0
25.08.2019 21:00:00 16,0 14,3 - 9 5 - - NNW 1018,3 21 0,0
25.08.2019 20:00:00 17,7 15,2 - 9 5 - - NW 1017,9 18 0,0
25.08.2019 19:00:00 19,8 14,7 - 9 5 - - WNW 1017,2 30 0,0
25.08.2019 18:00:00 21,1 16,1 - 11 6 - - WNW 1016,7 26 0,0
25.08.2019 17:00:00 21,6 15,6 - 8 4 - - W 1016,4 35 0,0
25.08.2019 16:00:00 22,5 15,9 - 9 5 - - WSW 1016,3 35 0,0
25.08.2019 15:00:00 21,6 15,7 - 5 3 - - NW 1016,2 22 0,0
25.08.2019 14:00:00 21,6 16,7 - 9 5 - - NW 1016,3 28 0,0
25.08.2019 13:00:00 22,2 17,3 - 2 1 - - ESE 1016,0 23 0,0
25.08.2019 12:00:00 22,0 15,8 - 5 3 - - SE 1016,0 28 0,0
25.08.2019 11:00:00 20,7 15,7 - 5 3 - - SE 1016,2 17 0,0
25.08.2019 10:00:00 19,0 15,0 14,7 4 2 - - SSE 1016,2 16 0,0
25.08.2019 09:00:00 17,0 14,9 - 4 2 - - ENE 1016,3 17 0,0
25.08.2019 08:00:00 14,5 14,0 - 2 1 - - N 1016,0 9 0,0
25.08.2019 07:00:00 12,9 12,1 - 4 2 - - SW 1015,3 12 0,0
25.08.2019 06:00:00 13,7 12,2 - 4 2 - - SW 1015,0 13 0,0
25.08.2019 05:00:00 13,9 12,7 - 2 1 - - SW 1014,9 20 0,0
25.08.2019 04:00:00 14,1 12,0 - 2 1 - - SW 1014,9 21 0,0
25.08.2019 03:00:00 14,3 11,9 - 5 3 - - SSW 1014,8 27 0,0
25.08.2019 02:00:00 14,0 11,3 - 2 1 - - S 1014,7 30 0,0
25.08.2019 01:00:00 13,9 11,0 - 0 0 - - N 1014,9 35 0,0
25.08.2019 00:00:00 14,4 10,4 - 2 1 - - SE 1014,9 40 0,0
24.08.2019 23:00:00 15,0 10,2 - 2 1 - - SSE 1015,0 40 0,0
24.08.2019 22:00:00 15,7 10,1 - 4 2 - - S 1015,0 35 0,0
24.08.2019 21:00:00 16,1 11,2 - 5 3 - - S 1014,9 45 0,0
24.08.2019 20:00:00 17,7 11,7 - 9 5 - - S 1014,5 27 0,0
24.08.2019 19:00:00 18,4 11,7 - 11 6 - - SSE 1014,2 45 0,0
24.08.2019 18:00:00 19,1 13,1 - 8 4 - - SSE 1014,3 27 0,0
24.08.2019 17:00:00 19,5 13,7 - 15 8 - - SSE 1014,4 29 0,0
24.08.2019 16:00:00 21,0 14,6 - 18 10 - - SSE 1014,4 35 0,0
24.08.2019 15:00:00 21,5 14,2 - 24 13 - - S 1014,3 35 0,0
24.08.2019 14:00:00 20,2 14,7 - 22 12 - - SSE 1014,7 23 0,0
24.08.2019 13:00:00 18,2 14,2 - 21 11 - - SSE 1015,4 23 0,0
24.08.2019 12:00:00 18,2 13,6 - 26 14 - - S 1015,6 29 0,0
24.08.2019 11:00:00 18,7 14,1 - 24 13 - - SSE 1015,8 30 0,0
24.08.2019 10:00:00 16,8 14,1 14,7 11 6 - - SSE 1015,9 23 0,0
24.08.2019 09:00:00 16,0 13,0 - 4 2 - - WSW 1016,0 28 0,0
24.08.2019 08:00:00 14,5 11,6 - 8 4 - - S 1015,8 40 0,0
24.08.2019 07:00:00 13,1 11,7 - 11 6 - - S 1016,0 24 0,0
24.08.2019 06:00:00 12,9 11,9 - 11 6 - - S 1016,3 13 0,0
24.08.2019 05:00:00 13,0 12,3 - 9 5 - - SSW 1016,4 12 0,0
24.08.2019 04:00:00 13,0 12,4 - 13 7 - - S 1016,6 10 0,0
24.08.2019 03:00:00 12,8 12,1 - 16 9 - - S 1016,9 11 0,0
24.08.2019 02:00:00 13,0 12,0 - 15 8 - - SSW 1017,1 14 0,0
24.08.2019 01:00:00 13,5 12,2 - 16 9 - - SSW 1017,0 21 0,0
24.08.2019 00:00:00 14,0 12,4 - 21 11 - - SSW 1016,9 24 0,0
23.08.2019 23:00:00 14,6 12,5 - 22 12 - - SSW 1016,7 30 0,0
23.08.2019 22:00:00 14,9 12,8 - 16 9 - - S 1017,0 30 0,0
23.08.2019 21:00:00 15,5 13,6 - 18 10 - - S 1016,6 23 0,0
23.08.2019 20:00:00 16,4 12,5 - 18 10 - - S 1016,9 50 0,0
23.08.2019 19:00:00 18,1 14,0 - 22 12 - - SSW 1017,1 29 0,0
23.08.2019 18:00:00 18,5 14,7 - 18 10 - - SSW 1017,5 40 0,0
23.08.2019 17:00:00 19,4 14,4 - 22 12 - - SW 1017,9 40 0,0
23.08.2019 16:00:00 19,6 14,6 - 22 12 - - SSW 1018,2 45 0,0
23.08.2019 15:00:00 19,5 14,7 - 21 11 - - SSW 1018,7 30 0,0
23.08.2019 14:00:00 19,3 14,3 - 21 11 - - SSW 1018,8 30 0,0
23.08.2019 13:00:00 18,8 14,6 - 24 13 - - SSW 1019,2 35 0,0
23.08.2019 12:00:00 18,8 15,7 - 21 11 - - SSW 1019,2 40 0,0
23.08.2019 11:00:00 17,1 14,1 - 24 13 - - SSW 1019,5 28 0,0
23.08.2019 10:00:00 16,0 14,0 14,7 18 10 - - SSW 1019,7 29 0,0
23.08.2019 09:00:00 15,5 13,7 - 18 10 - - SW 1019,6 22 0,0
23.08.2019 08:00:00 14,5 13,4 - 15 8 - - SSW 1019,7 30 0,0
23.08.2019 07:00:00 14,2 12,7 - 16 9 - - SW 1019,2 30 0,0
23.08.2019 06:00:00 14,6 13,5 - 13 7 - - SW 1019,1 20 0,0
23.08.2019 05:00:00 14,2 13,2 - 18 10 - - SW 1018,8 26 0,0
23.08.2019 04:00:00 13,9 12,9 - 15 8 - - SW 1019,0 21 0,0
23.08.2019 03:00:00 14,2 13,1 - 15 8 - - SW 1019,1 20 0,0
23.08.2019 02:00:00 14,5 13,2 - 16 9 - - SW 1018,8 22 0,0
23.08.2019 01:00:00 14,9 13,6 - 18 10 - - SW 1018,7 18 0,0
23.08.2019 00:00:00 15,4 13,9 - 18 10 - - SW 1018,7 17 0,0
22.08.2019 23:00:00 15,5 13,9 - 15 8 - - SW 1018,8 20 0,0
22.08.2019 22:00:00 16,0 14,1 - 18 10 - - WSW 1018,3 22 0,0
22.08.2019 21:00:00 16,0 14,1 - 18 10 - - WSW 1017,7 25 0,0
22.08.2019 20:00:00 16,5 14,4 - 15 8 - - W 1017,5 19 0,0
22.08.2019 19:00:00 17,2 14,8 - 18 10 - - WSW 1017,0 20 0,0
22.08.2019 18:00:00 17,9 15,5 - 18 10 - - WSW 1016,5 22 0,2
22.08.2019 17:00:00 17,6 16,2 - 16 9 - - WSW 1015,9 2,4 0,2
22.08.2019 16:00:00 17,2 16,4 - 18 10 - - SW 1015,6 5 0,0
22.08.2019 15:00:00 17,2 16,2 - 22 12 - - SW 1015,4 6 0,4
22.08.2019 14:00:00 16,4 15,5 - 21 11 - - SW 1015,5 3,7 0,4
22.08.2019 13:00:00 16,1 14,8 - 18 10 - - WSW 1015,3 23 0,0
22.08.2019 12:00:00 15,7 14,8 - 22 12 - - SW 1015,3 30 0,0
22.08.2019 11:00:00 14,7 14,2 - 18 10 - - SW 1015,5 3,9 0,2
22.08.2019 10:00:00 14,0 13,8 14,7 18 10 - - SW 1015,6 2,7 0,4
22.08.2019 09:00:00 12,9 12,7 - 13 7 - - SSW 1015,6 4,4 0,6
22.08.2019 08:00:00 12,2 11,7 - 13 7 - - SW 1015,7 3,0 0,2
22.08.2019 07:00:00 12,1 10,7 - 15 8 - - SW 1015,4 16 0,0
22.08.2019 06:00:00 12,2 11,0 - 18 10 - - SW 1015,2 45 0,0
22.08.2019 05:00:00 12,0 11,1 - 16 9 - - SW 1015,3 50 0,4
22.08.2019 04:00:00 12,7 12,2 - 16 9 - - SW 1015,6 26 0,4
22.08.2019 03:00:00 12,3 11,8 - 16 9 - - SW 1016,1 30 0,2
22.08.2019 02:00:00 12,1 11,5 - 16 9 - - SW 1016,0 24 0,0
22.08.2019 01:00:00 12,4 11,8 - 15 8 - - SW 1016,3 27 0,0
22.08.2019 00:00:00 12,5 12,0 - 15 8 - - SW 1016,3 30 0,0
21.08.2019 23:00:00 12,5 11,9 - 15 8 - - SW 1016,3 13 0,0
21.08.2019 22:00:00 12,4 11,3 - 11 6 - - SW 1016,3 40 0,0
21.08.2019 21:00:00 13,5 12,3 - 16 9 - - SW 1016,0 45 0,0
21.08.2019 20:00:00 14,3 13,1 - 11 6 - - WSW 1015,6 40 0,0
21.08.2019 19:00:00 14,2 13,5 - 21 11 - - SW 1015,3 30 0,2
21.08.2019 18:00:00 13,7 13,0 - 26 14 54 29 SW 1015,3 11 1,0
21.08.2019 17:00:00 13,8 13,1 - 28 15 52 28 SW 1015,5 5 1,4
21.08.2019 16:00:00 13,6 12,7 - 34 18 55 30 SSW 1015,7 3,1 1,0
21.08.2019 15:00:00 13,6 12,6 - 31 17 52 28 SSW 1016,4 9 2,2
21.08.2019 14:00:00 13,4 12,5 - 26 14 46 25 SSW 1017,5 9 2,6
21.08.2019 13:00:00 14,0 12,7 - 26 14 46 25 SSW 1018,0 7 0,8
21.08.2019 12:00:00 14,0 11,8 - 28 15 46 25 SSW 1018,3 45 0,0
21.08.2019 11:00:00 14,0 11,9 - 29 16 - - SSW 1018,6 35 0,0
21.08.2019 10:00:00 13,6 11,8 14,7 24 13 - - SSW 1019,4 30 0,0
21.08.2019 09:00:00 12,6 11,5 - 21 11 - - SSW 1019,9 23 0,0
21.08.2019 08:00:00 11,8 11,2 - 16 9 - - SSW 1020,1 26 0,0
21.08.2019 07:00:00 11,4 10,7 - 15 8 - - SSW 1020,5 18 0,0
21.08.2019 06:00:00 11,9 11,0 - 13 7 - - SSW 1020,9 20 0,0
21.08.2019 05:00:00 12,3 11,3 - 15 8 - - SW 1020,9 22 0,0
21.08.2019 04:00:00 12,4 11,6 - 13 7 - - SW 1021,0 20 0,0
21.08.2019 03:00:00 12,5 11,5 - 11 6 - - WSW 1021,4 21 0,0
21.08.2019 02:00:00 12,9 12,2 - 11 6 - - WSW 1021,6 14 0,0
21.08.2019 01:00:00 12,6 11,8 - 9 5 - - W 1021,4 19 0,0
21.08.2019 00:00:00 12,6 12,0 - 9 5 - - SW 1021,3 23 0,0
20.08.2019 23:00:00 13,0 12,1 - 8 4 - - WSW 1021,2 35 0,0
20.08.2019 22:00:00 13,0 12,1 - 9 5 - - W 1020,9 45 0,0
20.08.2019 21:00:00 14,1 12,7 - 9 5 - - W 1020,7 45 0,0
20.08.2019 20:00:00 14,7 13,1 - 9 5 - - W 1020,0 45 0,0
20.08.2019 19:00:00 15,2 13,5 - 11 6 - - SW 1019,8 30 0,2
20.08.2019 18:00:00 15,5 12,7 - 15 8 - - SSW 1019,3 45 0,0
20.08.2019 17:00:00 14,8 12,7 - 18 10 - - S 1019,3 18 0,0
20.08.2019 16:00:00 14,6 12,3 - 16 9 - - SSW 1019,5 35 0,0
20.08.2019 15:00:00 14,3 12,4 - 15 8 - - SW 1019,8 18 0,0
20.08.2019 14:00:00 14,0 11,9 - 18 10 - - SSW 1019,7 10 0,0
20.08.2019 13:00:00 14,6 11,3 - 13 7 - - SW 1019,4 24 0,0
20.08.2019 12:00:00 14,5 10,0 - 15 8 - - SW 1019,4 26 0,0
20.08.2019 11:00:00 15,3 11,1 - 15 8 - - SW 1019,2 21 0,0
20.08.2019 10:00:00 13,6 10,2 14,7 11 6 - - WSW 1019,4 20 0,0
20.08.2019 09:00:00 12,0 9,9 - 9 5 - - WSW 1019,0 23 0,0
20.08.2019 08:00:00 10,1 8,7 - 9 5 - - WSW 1018,8 19 0,0
20.08.2019 07:00:00 9,1 7,8 - 11 6 - - W 1018,3 25 0,0
20.08.2019 06:00:00 9,4 7,8 - 9 5 - - W 1017,9 21 0,0
20.08.2019 05:00:00 9,7 7,8 - 9 5 - - W 1017,3 29 0,0
20.08.2019 04:00:00 9,5 8,1 - 11 6 - - W 1017,1 26 0,0
20.08.2019 03:00:00 10,3 8,5 - 11 6 - - W 1016,5 25 0,0
20.08.2019 02:00:00 10,6 8,8 - 9 5 - - W 1016,4 27 0,0

tt = Température de l'air
td = dewpoint
tt -100cm = Température de l'air -100cm
ff = Vitesse du vent
fx = gusts
dd = Direction du vent
ppp = reduced air pressure
vv = visibility
rr = Quantités de précipitations

stations d'obs. à proximité